Simultaneous Nadir Overpasses (SNOs) Predictions

Prediction of SNOs between GOES-16 and AQUA Satellite Orbit:

Table of predicted SNOs for the next 14.0 days since TLE Epoch: 2/14/2025
Index Date Time (GOES-16) GOES-16 Lat,Lon AQUA Lat,Lon Distance(km) Time Diff (sec)
1 02/16/2025 19:20:35 0.03, -75.20 0.70, -72.17 344.72 80
2 02/17/2025 07:39:58 -0.03, -75.21 0.33, -76.86 187.27 80
3 02/19/2025 07:17:58 -0.03, -75.23 -0.67, -72.12 352.96 80
4 02/19/2025 19:37:30 0.03, -75.22 -0.35, -76.84 185.54 80
5 02/21/2025 19:20:48 0.02, -75.24 0.67, -72.10 355.93 80
6 02/22/2025 07:40:12 -0.01, -75.26 0.32, -76.79 175.16 80
7 02/24/2025 07:18:08 0.01, -75.27 -0.66, -72.04 367.36 80
8 02/24/2025 19:37:41 -0.01, -75.26 -0.31, -76.77 170.98 80
9 02/26/2025 19:20:56 -0.00, -75.29 0.69, -72.02 372.43 80
10 02/27/2025 07:40:19 0.00, -75.32 0.32, -76.70 157.88 80
